Regional Weather Roundup
Issued by NWS Cleveland, OH

Home | Current Version | Previous Version | Text Only | Print | Product List | Glossary Off
Versions: 1 2 3 4 5 6 7 8 9 10 11 12 13 14 15 16 17 18 19 20 21 22 23 24 25 26 27 28 29 30 31 32 33 34 35 36 37 38 39 40 41 42 43 44 45 46 47 48 49 50

000
ASUS41 KCLE 300000
RWRCLE
OHIO REGIONAL WEATHER ROUNDUP
NATIONAL WEATHER SERVICE WILMINGTON, OH
800 PM EDT SAT APR 29 2017

NOTE: "FAIR" INDICATES FEW OR NO CLOUDS BELOW 12,000 FEET WITH NO
SIGNIFICANT WEATHER AND/OR OBSTRUCTIONS TO VISIBILITY.

OHZ001>008-015>018-024>027-034-035-043-044-300100-
   NORTHWEST OHIO

CITY           SKY/WX    TMP DP  RH WIND       PRES   REMARKS
DEFIANCE       CLOUDY    46  40  79 NE12      30.15R
FINDLAY        CLOUDY    48  39  71 NE20G25   30.11S
TOLEDO EXPRESS CLOUDY    45  38  76 NE16G23   30.16S
TOLEDO EXEC    CLOUDY    46  38  73 NE14G21   30.17F
LIMA           CLOUDY    47  45  93 NE17      30.08F
$$

OHZ009>014-019>023-028>033-038-089-300100-
   NORTHEAST OHIO

CITY           SKY/WX    TMP DP  RH WIND       PRES   REMARKS
CLE-HOPKINS    CLOUDY    48  39  71 NE13      30.21F
CLE-LAKEFRONT  CLOUDY    47  41  80 NE15      30.19F
CUY CO. ARPT   CLOUDY    48  41  76 NE9       30.19F
LORAIN-ELYRIA  CLOUDY    46  38  73 NE9       30.18F
ASHTABULA      CLOUDY    49  41  74 VRB3      30.20S
AKRON-CANTON   CLOUDY    52  48  86 NE13      30.15S FOG
WOOSTER        CLOUDY    48  46  93 NE10      30.15F FOG
MANSFIELD      CLOUDY    46  45  96 NE16      30.12F
YOUNGSTOWN     CLOUDY    50  47  89 N9        30.18R
$$

OHZ042-051>053-060>062-070>072-077>081-300100-
  SOUTHWEST OHIO

CITY           SKY/WX    TMP DP  RH WIND       PRES   REMARKS
CINC-COVINGTON MOCLDY    77  66  68 E9        29.94F
CINC-LUNKEN    FAIR      76  69  79 E3        29.94F
HAMILTON       FAIR      74  66  76 E5        29.95F
DAYTON         NOT AVBL
WRIGHT-PAT AFB NOT AVBL
DAYTON GENERAL FAIR      73  64  73 NE6       29.97F
WILMINGTON     FAIR      73  67  81 E6        29.99F
$$

OHZ036-037-039>041-045>050-054>059-063>069-073>076-082>088-300100-
  CENTRAL AND SOUTHEAST OHIO

CITY           SKY/WX    TMP DP  RH WIND       PRES   REMARKS
COLUMBUS       MOCLDY    70  64  81 N9        30.02F
OSU AIRPORT    FAIR      61  59  93 N9        30.04F
BOLTON FIELD   CLEAR     70  63  78 N9        30.04S
RICKENBACK AFB NOT AVBL
NEWARK         FAIR      62  57  83 N7        30.05R
MARION         CLOUDY    49  47  93 NE17      30.10F FOG
LANCASTER      FAIR      74  65  73 E6        30.03F
ZANESVILLE     FAIR      73  61  65 NE13      30.06S
NEW PHILLY     CLOUDY    60  58  92 N8        30.12R
$$




USA.gov is the U.S. government's official web portal to all federal, state and local government web resources and services.